DMSP 5D-2 F13 DEB, 40434

Orbit data source: Space-Track

DMSP 5D-2 F13 DEB, 40434 is space debris in SSO originally from a launch on Fri, 24 Mar 1995 UTC launched from the Air Force Western Test Range (AFWTR). Debris objects in space refer to the collection of defunct objects orbiting the Earth. Examples of debris include non-operational satellites, rocket bodies, and fragments generated from explosions, collisions, or faulty payload assembly.

Loading next visibility...
Identifier
40434, 1995-015AL
Orbit
SSO
Last TLE update
8 hours ago
Origin
Manufacturer
Unknown
Mission
Spacecraft
Bus & Motor
Unknown
Mass
Unknown
Launch date (UTC)
1995-03-24 (30 years ago)
Launch vehicle
Unknown
Launch site
Air Force Western Test Range (AFWTR)
Object type
Payload
Rocket body
Debris
Shape & HBR
Unknown
Radar Cross Section
Small (<0.1 m²)

Expand to show TLE details & history

TLE from 8 hours ago
0 DMSP 5D-2 F13 DEB
1 40434U 95015AL  25181.89279036  .00001140  00000-0  55254-3 0  9996
2 40434  99.0836 159.5240 0175438 126.8068 234.9345 14.12623160532463
Epoch: 2025-06-30T21:25Z
TLE epoch observation values (Epoch: 2025-06-30T21:25:37.087Z)
Latitude
0.00007°
Longitude
-81.07661°
Altitude
927.644 km
Speed
7.35 km/s
True Right ascension
10h 38m 05s
True Declination
0° 00' 00"
Sunlit
Object was in daylight at epoch
Visualization orbit readout
Latitude
-80.2487°
Longitude
31.51877°
Altitude
975.347 km
Speed
7.314 km/s
Apparent Right ascension
04h 44m 57s
Apparent Declination
-71° 48' 43"
Sunlit
Object is in full shadow
Visualization observer readout
Local Sidereal Time
17:05:48
Azimuth
176.932° S
Elevation
-57.997°
Doppler factor
1
Orbital elements
Apogee altitude
974.361 km
Perigee altitude
720.828 km
Semi-major axis
7,225.732 km
Eccentricity
0.01754
Inclination
99.0836°
RAAN
159.524°
Arg. of periapsis
126.8068°
True anomaly
Unknown
Mean anomaly
234.9345°
Eccentric anomaly
Unknown
Mean motion
3.53362 °/min
Orbital period
101.88 mins
BSTAR
0.00055254
Loading maneuver chart data...
Loading SW <> Apogee altitude chart data...

DMSP 5D-2 F13 DEB Visibility forecast

Observer location: undefined°, undefined°

Span
Click to sort rows by Start time (UTC) header in descending order
Start Az.
Max El. time (UTC)
Max El. Az.
Max El.
End time (UTC)
End Az.
9 mins2025-07-01 11:36:10.894Z9.983° NNE2025-07-01 11:40:10.894Z308.714° NW43.979°2025-07-01 11:45:10.894Z201.253° SSW
7 mins2025-07-01 21:23:10.894Z108.058° ESE2025-07-01 21:26:10.894Z66.555° ENE22.391°2025-07-01 21:30:10.894Z14.411° NNE
8 mins2025-07-01 23:03:10.894Z198.07° SSW2025-07-01 23:06:10.894Z245.643° WSW33.805°2025-07-01 23:11:10.894Z329.429° NNW
|